Lid_Strength_Index
10 9 9 10 9 9 11 11 15 12 13 11 9 9 8 8 7 7 7 7 7 7 8 7 8 8 8 8 8 7 7 7 7 6 4 4 4 3 3 2 2 2 2 2
13 10 9 11 9 9 10 10 10 10 12 8 8 7 8 8 8 8 8 8 8 8 9 9 9 9 8 8 8 7 8 8 6 6 6 6 4 3 2 2 2 3 3 2
16 11 11 15 11 10 10 9 10 14 11 8 9 8 8 8 8 8 9 9 9 10 10 9 9 8 9 9 8 8 8 8 7 6 6 4 3 4 3 4 4 4 4 4
16 14 20 11 7 8 9 10 9 9 9 8 8 8 7 8 9 10 10 10 10 9 9 9 9 10 10 9 10 10 10 9 7 7 6 5 5 5 6 5 4 4 4 3
17 18 13 10 9 10 13 13 9 9 8 7 7 8 9 9 10 10 10 9 9 9 10 10 10 10 10 10 10 10 10 9 8 7 6 6 6 6 5 5 5 5 4 4
16 19 19 12 8 6 7 16 8 8 8 9 10 14 12 10 9 9 9 9 10 10 10 11 10 10 10 11 10 10 10 9 8 7 6 6 6 6 6 5 5 5 6 6
15 18 14 9 7 6 15 15 8 8 9 10 12 12 10 9 10 10 9 10 10 10 11 11 10 10 10 10 10 9 9 9 8 8 7 7 7 7 7 7 7 7 8 7
15 17 18 6 8 12 10 8 8 9 10 10 10 10 10 10 10 10 10 11 10 11 11 11 10 10 10 10 9 9 9 9 9 8 8 7 7 7 8 8 8 9 9 9
12 13 8 7 8 6 6 8 8 9 9 10 11 11 10 10 10 10 11 10 10 11 11 10 10 9 10 9 9 9 9 9 9 8 8 7 8 8 9 9 9 9 9 10
11 9 8 7 6 6 6 8 7 8 10 10 11 10 11 10 10 11 11 11 10 10 11 10 9 9 9 9 9 9 10 9 9 9 9 8 8 8 9 9 9 10 10 10
10 8 7 6 6 6 7 6 9 10 10 9 10 10 10 10 11 11 11 10 10 10 10 9 9 9 9 8 8 9 9 9 10 10 10 10 10 10 10 10 10 10 10 10
12 8 8 8 7 7 8 10 10 11 10 9 10 10 10 11 11 10 10 10 10 9 10 9 8 8 9 8 9 9 10 10 10 10 10 10 11 11 11 11 11 11 10 10
8 6 6 6 6 7 9 10 10 9 9 10 9 10 10 11 10 9 10 10 10 10 9 9 9 9 8 8 8 9 9 9 9 9 10 10 11 11 13 12 11 11 11 11
5 5 7 6 8 9 10 10 9 9 9 9 9 9 10 10 10 10 10 10 9 9 9 9 9 9 8 8 8 8 8 9 9 10 11 11 11 11 12 12 12 11 10 10
5 5 6 6 8 10 10 9 10 10 10 10 9 10 10 10 11 10 9 9 9 9 9 9 9 9 8 9 9 8 9 9 10 10 10 10 10 11 11 11 12 12 11 10
6 6 7 8 10 10 11 10 10 10 10 10 10 10 10 10 10 9 9 9 9 9 9 9 9 9 8 9 10 10 9 8 9 10 10 11 11 11 11 11 11 11 11 11
8 9 8 10 11 11 10 9 9 9 9 9 10 10 10 10 10 10 9 8 8 9 9 9 9 8 8 9 9 9 8 9 9 9 10 10 11 11 11 11 11 11 12 12
7 7 8 10 11 10 9 8 8 8 9 9 9 10 10 10 11 10 9 9 9 9 10 9 8 7 7 8 8 9 9 9 10 10 10 10 11 11 11 11 11 11 11 10
7 7 8 9 9 9 9 9 8 8 9 8 10 11 10 10 10 10 9 9 10 11 10 9 9 9 8 8 9 9 9 10 10 10 10 10 10 10 10 10 10 10 9 9
7 7 8 9 9 9 8 7 7 8 8 9 9 10 10 10 10 10 9 10 10 10 9 9 9 8 8 8 8 8 9 9 9 10 10 10 10 10 10 10 9 9 9 9
7 7 8 9 9 8 8 7 8 8 8 9 10 10 10 10 10 10 10 11 10 9 9 9 9 8 8 9 9 8 8 9 9 9 9 10 10 10 10 9 9 9 8 8
6 7 8 8 9 9 8 7 8 8 9 10 10 10 10 10 10 10 9 10 9 11 9 8 8 10 10 11 9 8 8 8 9 9 10 10 10 10 9 9 9 8 8 8
7 7 8 10 10 10 8 8 8 9 9 10 10 10 10 10 10 10 10 9 8 8 8 8 10 11 12 9 7 8 8 8 9 9 9 9 9 9 9 9 8 8 8 8
5 7 9 9 9 10 10 9 9 9 9 9 9 9 9 10 9 8 8 9 10 9 8 8 9 12 13 8 8 7 8 8 9 9 9 10 9 9 9 9 9 8 8 7
6 7 8 9 10 10 9 9 9 9 9 10 9 9 8 8 9 8 8 8 9 9 7 10 11 12 9 7 7 8 8 8 8 8 8 9 9 8 8 7 7 7 6 6
6 7 8 9 10 9 9 9 10 10 9 10 9 8 8 8 7 7 7 8 7 8 8 7 7 7 7 7 8 8 7 8 8 8 8 8 9 9 8 7 6 6 5 5
6 10 8 8 9 8 7 8 9 9 9 9 9 8 8 8 8 8 9 7 7 7 7 7 7 7 7 6 6 7 8 8 8 7 8 8 8 7 6 6 5 5 5 5